TimeCST,TemperatureF,Dew PointF,Humidity,Sea Level PressureIn,VisibilityMPH,Wind Direction,Wind SpeedMPH,Gust SpeedMPH,PrecipitationIn,Events,Conditions,WindDirDegrees,DateUTC
12:15 AM,41.5,38.3,88,30.08,10.0,ENE,6.9,-,N/A,,Scattered Clouds,70,2014-01-05 06:15:00
12:35 AM,41.5,38.7,89,30.08,10.0,ENE,6.9,-,N/A,,Clear,70,2014-01-05 06:35:00
12:55 AM,41.5,38.8,90,30.08,10.0,ENE,8.1,-,N/A,,Clear,70,2014-01-05 06:55:00
1:15 AM,41.4,39.2,92,30.08,10.0,ENE,6.9,-,N/A,,Scattered Clouds,70,2014-01-05 07:15:00
1:35 AM,42.1,39.4,90,30.08,10.0,ESE,3.5,-,N/A,,Overcast,110,2014-01-05 07:35:00
1:55 AM,41.9,39.4,91,30.08,10.0,East,5.8,-,N/A,,Overcast,80,2014-01-05 07:55:00
2:15 AM,41.9,39.6,91,30.07,10.0,ENE,5.8,-,N/A,,Mostly Cloudy,60,2014-01-05 08:15:00
2:35 AM,42.6,40.1,91,30.08,10.0,East,3.5,-,N/A,,Overcast,80,2014-01-05 08:35:00
2:55 AM,43.0,40.3,90,30.08,10.0,ENE,4.6,-,N/A,,Overcast,70,2014-01-05 08:55:00
3:15 AM,43.2,40.3,90,30.07,10.0,ENE,6.9,-,N/A,,Overcast,70,2014-01-05 09:15:00
3:35 AM,43.3,40.5,90,30.07,10.0,East,5.8,-,N/A,,Overcast,80,2014-01-05 09:35:00
3:55 AM,43.7,40.5,88,30.07,10.0,East,6.9,-,N/A,,Overcast,80,2014-01-05 09:55:00
4:15 AM,44.1,41.0,89,30.06,10.0,ENE,8.1,-,N/A,,Overcast,70,2014-01-05 10:15:00
4:35 AM,44.6,41.2,88,30.06,10.0,East,6.9,-,N/A,,Overcast,100,2014-01-05 10:35:00
4:55 AM,44.6,41.2,88,30.06,10.0,East,6.9,-,N/A,,Overcast,80,2014-01-05 10:55:00
5:15 AM,44.6,41.4,88,30.06,10.0,East,6.9,-,N/A,,Overcast,80,2014-01-05 11:15:00
5:35 AM,44.6,41.5,89,30.05,10.0,ENE,6.9,-,N/A,,Overcast,70,2014-01-05 11:35:00
5:55 AM,45.0,42.1,90,30.06,10.0,NE,6.9,-,N/A,,Overcast,40,2014-01-05 11:55:00
6:15 AM,44.8,41.9,90,30.06,10.0,ENE,6.9,-,N/A,,Overcast,70,2014-01-05 12:15:00
6:35 AM,45.0,42.3,90,30.05,10.0,ENE,8.1,-,N/A,,Overcast,70,2014-01-05 12:35:00
6:55 AM,45.1,42.4,90,30.06,10.0,ENE,6.9,-,N/A,,Overcast,70,2014-01-05 12:55:00
7:15 AM,45.3,42.8,91,30.06,10.0,ENE,5.8,-,N/A,,Overcast,70,2014-01-05 13:15:00
7:35 AM,45.7,42.8,90,30.08,10.0,ENE,5.8,-,N/A,,Overcast,70,2014-01-05 13:35:00
7:55 AM,46.4,43.2,88,30.07,10.0,ENE,6.9,-,N/A,,Overcast,70,2014-01-05 13:55:00
8:15 AM,47.7,43.7,86,30.07,10.0,East,5.8,-,N/A,,Overcast,80,2014-01-05 14:15:00
8:35 AM,49.6,44.6,83,30.07,10.0,East,9.2,-,N/A,,Mostly Cloudy,80,2014-01-05 14:35:00
8:55 AM,50.0,45.5,85,30.07,10.0,East,4.6,-,N/A,,Mostly Cloudy,90,2014-01-05 14:55:00
9:15 AM,51.3,46.4,83,30.06,10.0,East,3.5,-,N/A,,Overcast,80,2014-01-05 15:15:00
9:35 AM,51.6,46.8,83,30.06,10.0,East,3.5,-,N/A,,Overcast,100,2014-01-05 15:35:00
9:55 AM,52.2,47.1,83,30.05,10.0,East,5.8,-,N/A,,Overcast,80,2014-01-05 15:55:00
10:15 AM,53.4,47.8,81,30.04,10.0,ENE,4.6,-,N/A,,Overcast,70,2014-01-05 16:15:00
10:35 AM,54.1,48.2,80,30.03,10.0,East,3.5,-,N/A,,Overcast,90,2014-01-05 16:35:00
10:55 AM,55.4,49.1,79,30.03,10.0,Calm,Calm,-,N/A,,Overcast,0,2014-01-05 16:55:00
11:15 AM,56.1,49.8,79,30.01,10.0,Calm,Calm,-,N/A,,Overcast,0,2014-01-05 17:15:00
11:35 AM,56.3,50.0,79,30.00,10.0,Calm,Calm,-,N/A,,Overcast,0,2014-01-05 17:35:00
11:55 AM,57.2,50.5,78,29.99,10.0,East,4.6,-,N/A,,Overcast,100,2014-01-05 17:55:00
12:15 PM,59.0,51.4,76,29.97,10.0,ESE,5.8,-,N/A,,Overcast,110,2014-01-05 18:15:00
12:35 PM,58.1,52.0,80,29.97,10.0,SE,3.5,-,N/A,,Overcast,140,2014-01-05 18:35:00
12:55 PM,60.1,52.7,77,29.96,10.0,ESE,3.5,-,N/A,,Overcast,120,2014-01-05 18:55:00
1:15 PM,61.2,53.8,77,29.95,10.0,SE,4.6,-,N/A,,Overcast,130,2014-01-05 19:15:00
1:35 PM,62.4,55.0,77,29.94,10.0,SSE,8.1,-,N/A,,Overcast,160,2014-01-05 19:35:00
1:55 PM,61.9,55.4,79,29.94,10.0,SE,5.8,-,N/A,,Overcast,130,2014-01-05 19:55:00
2:15 PM,61.9,56.1,81,29.95,10.0,SSE,3.5,-,N/A,,Overcast,160,2014-01-05 20:15:00
2:35 PM,61.7,56.5,83,29.94,10.0,SSE,4.6,-,N/A,,Overcast,150,2014-01-05 20:35:00
2:55 PM,61.5,56.7,84,29.93,10.0,SSE,5.8,-,N/A,,Overcast,150,2014-01-05 20:55:00
3:15 PM,61.7,57.0,85,29.94,10.0,South,6.9,-,N/A,,Overcast,180,2014-01-05 21:15:00
3:35 PM,61.7,58.1,88,29.94,10.0,SSW,3.5,-,N/A,,Overcast,200,2014-01-05 21:35:00
3:55 PM,61.7,59.0,91,29.93,10.0,South,3.5,-,N/A,,Overcast,170,2014-01-05 21:55:00
4:15 PM,61.7,59.4,92,29.93,10.0,SSW,4.6,-,N/A,,Overcast,200,2014-01-05 22:15:00
4:35 PM,61.5,59.9,94,29.93,10.0,South,6.9,-,N/A,,Overcast,190,2014-01-05 22:35:00
4:55 PM,61.2,60.3,97,29.93,7.0,SSW,3.5,-,N/A,,Overcast,200,2014-01-05 22:55:00
5:15 PM,61.0,60.4,98,29.93,7.0,South,5.8,-,N/A,,Overcast,190,2014-01-05 23:15:00
5:35 PM,60.8,60.4,99,29.92,7.0,South,5.8,-,N/A,,Overcast,190,2014-01-05 23:35:00
5:55 PM,60.8,60.8,100,29.92,5.0,South,4.6,-,N/A,,Overcast,190,2014-01-05 23:55:00
6:15 PM,61.0,60.8,99,29.93,7.0,SSW,4.6,-,N/A,,Overcast,200,2014-01-06 00:15:00
6:35 PM,60.8,60.6,99,29.93,5.0,South,3.5,-,N/A,,Overcast,190,2014-01-06 00:35:00
6:55 PM,60.4,60.3,99,29.92,5.0,South,4.6,-,N/A,,Overcast,180,2014-01-06 00:55:00
7:15 PM,60.4,60.3,99,29.92,5.0,South,4.6,-,N/A,,Overcast,180,2014-01-06 01:15:00
7:35 PM,60.1,60.1,100,29.91,5.0,South,4.6,-,N/A,,Overcast,180,2014-01-06 01:35:00
7:55 PM,60.4,60.4,100,29.91,5.0,South,6.9,-,N/A,,Overcast,180,2014-01-06 01:55:00
8:15 PM,59.9,59.9,100,29.90,4.0,South,6.9,-,N/A,,Mostly Cloudy,180,2014-01-06 02:15:00
8:35 PM,60.1,60.1,100,29.90,7.0,South,6.9,-,N/A,,Scattered Clouds,180,2014-01-06 02:35:00
8:55 PM,60.1,59.9,99,29.90,7.0,South,6.9,-,N/A,,Mostly Cloudy,190,2014-01-06 02:55:00
9:15 PM,60.1,59.9,99,29.90,10.0,South,6.9,-,N/A,,Mostly Cloudy,190,2014-01-06 03:15:00
9:35 PM,60.1,59.9,99,29.90,7.0,South,6.9,-,N/A,,Scattered Clouds,190,2014-01-06 03:35:00
9:55 PM,60.1,59.9,99,29.89,7.0,South,4.6,-,N/A,,Clear,190,2014-01-06 03:55:00
10:15 PM,60.1,60.1,100,29.89,4.0,South,8.1,-,N/A,,Mostly Cloudy,190,2014-01-06 04:15:00
10:35 PM,60.4,60.4,100,29.88,5.0,South,5.8,-,N/A,,Overcast,190,2014-01-06 04:35:00
10:55 PM,60.8,60.8,100,29.87,7.0,South,5.8,-,N/A,,Overcast,190,2014-01-06 04:55:00
11:15 PM,61.0,61.0,100,29.86,10.0,South,6.9,-,N/A,,Overcast,190,2014-01-06 05:15:00
11:35 PM,61.7,61.5,99,29.86,7.0,SW,5.8,-,0.01,Rain,Rain,220,2014-01-06 05:35:00
11:55 PM,61.7,61.3,99,29.88,4.0,West,6.9,18.4,0.12,Rain,Light Rain,270,2014-01-06 05:55:00